This demonstration page uses our WeatherBlox Daily Observations layout. Learn more.

Left ArrowRight Arrow

34.16533, -84.80231

Hourly Observations for August 15, 2020

Temp ( °F °C ) Dew Point ( °F °C ) Humidity (%) Winds ( mph kmh ) Pressure ( in mb ) Visibility ( mi km ) Precip ( " mm )
12:53 am 00:53 Mostly Clear 75 23.9 72 22.2 90 90 S 6 9 29.88 1012 10 16 0.00 0.00
2:53 am 02:53 Cloudy 75 23.9 72 22.2 90 90 Calm 29.85 1011 10 16 0.00 0.00
3:51 am 03:51 Mostly Cloudy 73 23 72 22 94 94 Calm 29.86 1011 10 16 0.00 0.00
3:53 am 03:53 Mostly Cloudy 74 23.3 72 22.2 94 94 Calm 29.85 1011 10 16 0.00 0.00
4:53 am 04:53 Cloudy 75 23.9 72 22.2 90 90 S 3 6 29.85 1011 10 16 0.00 0.00
5:35 am 05:35 Partly Cloudy 75 23.9 71 21.7 88 88 S 3 6 29.85 1011 10 16 0.00 0.00
5:48 am 05:48 Mostly Cloudy 75 24 72 22 89 89 Calm 29.86 1011 10 16 0.00 0.00
5:53 am 05:53 Mostly Cloudy 75 23.9 71 21.7 88 88 Calm 29.85 1011 10 16 0.00 0.00
6:53 am 06:53 Cloudy 75 23.9 72 22.2 90 90 Calm 29.86 1011 10 16 0.00 0.00
7:25 am 07:25 Cloudy 75 23.9 72 22.2 90 90 Calm 29.88 1012 9 14 0.00 0.00
7:35 am 07:35 Cloudy 75 23.9 72 22.2 90 90 Calm 29.88 1012 10 16 0.00 0.00
7:44 am 07:44 Cloudy 75 23.9 72 22.2 90 90 Calm 29.89 1012 10 16 0.00 0.00
7:53 am 07:53 Cloudy 75 23.9 72 22.2 90 90 Calm 29.88 1012 9 14 0.00 0.00
8:53 am 08:53 Cloudy 76 24.4 72 22.2 88 88 Calm 29.88 1012 10 16 0.00 0.00
9:45 am 09:45 Cloudy 78 25.6 72 22.2 82 82 Calm 29.90 1012 10 16 0.00 0.00
9:53 am 09:53 Cloudy 79 26.1 72 22.2 79 79 VRB 3 6 29.88 1012 10 16 0.00 0.00
10:10 am 10:10 Cloudy 79 26.1 72 22.2 79 79 VRB 3 6 29.90 1012 10 16 0.00 0.00
10:50 am 10:50 Cloudy 79 26 72 22 79 79 Calm 29.90 1012 10 16 0.00 0.00
10:53 am 10:53 Cloudy 79 26.1 72 22.2 79 79 Calm 29.89 1012 10 16 0.00 0.00
11:02 am 11:02 Mostly Cloudy 81 27.2 73 22.8 77 77 VRB 5 7 29.89 1012 10 16 0.00 0.00
11:19 am 11:19 Partly Cloudy 83 28.3 72 22.2 70 70 VRB 6 9 29.88 1012 10 16 0.00 0.00
11:53 am 11:53 Partly Cloudy 83 28.3 72 22.2 70 70 VRB 3 6 29.88 1012 10 16 0.00 0.00
12:53 pm 12:53 Mostly Cloudy 80 26.7 73 22.8 79 79 Calm 29.88 1012 10 16 0.00 0.00
1:03 pm 13:03 Partly Cloudy with Thunderstorms 83 28.3 74 23.3 74 74 NE 3 6 29.88 1012 10 16 0.00 0.00
1:18 pm 13:18 Mostly Cloudy 85 29.4 74 23.3 70 70 N 6 9 29.88 1012 10 16 0.00 0.00
1:53 pm 13:53 Mostly Cloudy with Nearby Thunderstorms 81 27.2 70 21.1 69 69 VRB 6 9 29.88 1012 10 16 0.00 0.00
2:02 pm 14:02 Mostly Cloudy with Thunderstorms 79 26.1 69 20.6 72 72 VRB 6 9 29.89 1012 10 16 0.00 0.00
2:17 pm 14:17 Cloudy with Light Rain 77 25 70 21.1 79 79 Calm 29.88 1012 5 8 0.01 0.25
2:53 pm 14:53 Sunny 80 26.7 73 22.8 79 79 ESE 5 7 29.86 1011 10 16 0.02 0.51
3:53 pm 15:53 Sunny 86 30 72 22.2 63 63 Calm 29.83 1010 10 16 0.00 0.00
4:53 pm 16:53 Sunny 88 31.1 72 22.2 59 59 VRB 3 6 29.81 1010 10 16 0.00 0.00
5:31 pm 17:31 Mostly Cloudy with Nearby Thunderstorms 80 26.7 71 21.7 74 74 NNE 14 22 29.84 1010 6 10 0.01 0.25
5:37 pm 17:37 Cloudy with Nearby Thunderstorms 76 24.4 71 21.7 85 85 N 17 28 29.86 1011 2 2 0.14 3.56
5:41 pm 17:41 Cloudy with Heavy Rain 74 23.3 71 21.7 91 91 N 14 22 29.86 1011 1 1 0.36 9.14
5:48 pm 17:48 Cloudy with Strong Thunderstorms 73 23 72 22 94 94 Calm 29.85 1011 1 1 0.57 14.48
5:53 pm 17:53 Cloudy with Thunderstorms 75 23.9 72 22.2 90 90 SSW 5 7 29.84 1011 1 2 0.57 14.48
5:56 pm 17:56 Cloudy with Thunderstorms 75 23.9 72 22.2 90 90 S 6 9 29.85 1011 3 5 0.00 0.00
6:25 pm 18:25 Cloudy with Nearby Thunderstorms 74 23.3 72 22.2 94 94 Calm 29.85 1011 9 14 0.01 0.25
6:38 pm 18:38 Cloudy with Light Rain 75 23.9 72 22.2 90 90 VRB 3 6 29.85 1011 10 16 0.01 0.25
6:53 pm 18:53 Partly Cloudy 75 23.9 71 21.7 88 88 Calm 29.84 1010 10 16 0.01 0.25
7:53 pm 19:53 Sunny 76 24.4 72 22.2 88 88 Calm 29.85 1011 10 16 0.00 0.00
8:53 pm 20:53 Mostly Clear 74 23.3 72 22.2 94 94 Calm 29.87 1011 10 16 0.00 0.00
9:53 pm 21:53 Cloudy 75 23.9 72 22.2 90 90 Calm 29.88 1012 10 16 0.00 0.00
10:53 pm 22:53 Clear 74 23.3 72 22.2 94 94 Calm 29.88 1012 9 14 0.00 0.00
11:53 pm 23:53 Mostly Clear 74 23.3 71 21.7 91 91 Calm 29.89 1012 8 13 0.00 0.00

Powered by AerisWeather